Location: Jodlow
(50.1500°N, 16.7500°E)
Time: 18:49:41
(UTC+02:00)

O/OREOS (USA 219) - Pass Details

Date: 01 March 2024
Orbit: 621 x 646 km, 72.0° (Epoch: 22 May)

Event Time Altitude Azimuth Distance (km) Brightness Sun altitude
Rises 04:02:59 0° 163° (SSE) 2,931 ? -25.0°
Reaches altitude 10° 04:05:46 10° 146° (SE) 2,032 ? -24.6°
Maximum altitude 04:08:59 19° 101° (E) 1,524 ? -24.1°
Drops below altitude 10° 04:12:13 10° 56° (ENE) 2,050 ? -23.6°
Sets 04:15:02 0° 39° (NE) 2,968 ? -23.2°
